sat.trackr.live / text

‹ back to catalog

STARLINK-34869

NORAD 65371 · 2025-190W

PAYLOAD ACTIVE UNKNOWN

§ Identity

Operator
Country
US
Launch date
2025-08-28
Launch site
AFETR
Launch vehicle
Mass (kg)
RCS (m²)

Purposes: comms

External: N2YO · Heavens-Above · Gunter

§ Orbital elements

Epoch: 2026-09-20T22:38:44.743488Z

Period
93.85 min
Inclination
53.1589°
Eccentricity
0.0001044
Mean motion
15.34366071 rev/d
Perigee alt
462.1 km
Apogee alt
463.5 km
Semi-major
6,840.9 km
B*
4.0101e-4
RAAN
339.5302°
Arg perigee
103.2567°
Mean anomaly
256.8552°
Rev number
5,967

§ Raw data

STARLINK-348691 65371U 25190W   26263.94357342  .00013182  00000+0  40101-3 0  99982 65371  53.1589 339.5302 0001044 103.2567 256.8552 15.34366071 59679

JSON: /api/v1/satellites/65371 · /tle

For live sub-satellite position, see the globe view (requires WebGL).

§ Visibility from observer

Set your observer location to see the next 7 days of passes ≥ 10°. The values pass through the URL so the page stays shareable.

No JS? Fill the form by hand. The geolocation button needs JavaScript.